Location: Jetmore Oil Field
(38.1181°N, 99.9337°W)
Time: 18:01:37
(UTC+00:00)

ISS - Pass Details

Date: 01 July 2021
Orbit: 419 x 421 km, 51.6° (Epoch: 29 July)

Event Time Altitude Azimuth Distance (km) Brightness Sun altitude
Exits shadow 10:03:41 - 283° (WNW) 1,597 -1.1 -12.9°
Maximum altitude 10:06:31 19° 335° (NNW) 1,065 -1.5 -12.5°
Drops below altitude 10° 10:09:01 10° 23° (NNE) 1,501 0.2 -12.1°
Sets 10:11:32 0° 42° (NE) 2,367 2.2 -11.8°
